Virtual Norwegian is not affiliated with Norwegian Air Shuttle in any way.
If you are looking for the real "Norwegian", or you wish to book Norwegian flights, please visit Norwegian.com


We use cookies to ensure you get the best experience on our website.   ACCEPT

LBBG - BOJ - Bourgas (Burgas)

General Info Alternate Airport
ICAO: LBBG Elevation: 135 ft ICAO: LBWN
IATA: BOJ Country: Bulgaria IATA: VAR
City: Bourgas Charts: Log in to view charts City: Varna
Name: Burgas Hub: No Name Varna
General Info
ICAO: LBBG
IATA: BOJ
City: Bourgas
Name: Burgas
Elevation: 135 ft
Country: Bulgaria
Charts: Log in to view charts
Hub: No
 
Alternate Airport
ICAO: LBWN
IATA: VAR
City: Varna
Name: Varna

Weather
160700Z 31008KT 250V350 9999 SCT015 BKN049 05/02 Q1026 NOSIG
Weather
160700Z 31008KT 250V350 9999 SCT015 BKN049 05/02 Q1026 NOSIG

Runway Info
04
Length ILS/LOC Heading
3200 m N/A 044
22
Length ILS/LOC Course
3200 m 110.30 220

NOTAMs
NOTAMs currently unavailable.
NOTAMs
NOTAMs currently unavailable

Route map
Airport
Airport (hub)